Date,TemperatureHighF,TemperatureAvgF,TemperatureLowF,DewpointHighF,DewpointAvgF,DewpointLowF,HumidityHigh,HumidityAvg,HumidityLow,PressureMaxIn,PressureMinIn,WindSpeedMaxMPH,WindSpeedAvgMPH,GustSpeedMaxMPH,PrecipitationSumIn
2013-3-1,69.6,61.4,52.5,53.7,49.0,43.2,87,65,49,30.45,30.25,13,3,14,0.00
2013-3-2,69.2,60.4,51.8,53.4,48.6,44.3,83,65,46,30.25,30.07,8,1,11,0.00
2013-3-3,56.6,49.9,44.8,48.8,45.9,43.2,95,86,66,30.12,30.06,10,4,15,0.00
2013-3-4,53.9,45.5,42.9,46.6,42.8,40.5,95,90,74,30.18,30.09,13,2,19,0.00
2013-3-5,55.2,47.3,41.3,43.7,41.0,38.6,93,80,58,30.09,29.88,17,6,28,0.06
2013-3-6,51.3,47.2,44.3,44.6,41.2,38.0,94,80,62,30.10,29.88,16,4,24,0.17
2013-3-7,55.1,47.0,42.5,43.3,39.6,34.5,95,77,47,30.02,29.88,11,3,17,0.06
2013-3-8,52.4,46.3,42.5,44.3,41.7,37.1,95,84,72,30.09,29.84,15,5,22,0.02
2013-3-9,58.7,50.7,43.0,45.0,42.3,38.6,94,75,53,30.33,30.08,9,2,13,0.00
2013-3-10,63.3,56.2,49.5,44.0,37.9,28.5,75,51,34,30.36,30.27,13,3,17,0.00
2013-3-11,64.8,57.9,50.5,49.8,38.1,28.3,67,48,36,30.28,30.13,8,2,12,0.00
2013-3-12,68.0,57.4,47.0,53.9,47.8,38.1,90,71,52,30.17,30.09,6,1,9,0.00
2013-3-13,74.2,64.2,54.6,56.7,51.9,47.4,81,65,53,30.17,30.08,11,3,14,0.00
2013-3-14,66.2,59.9,52.3,55.8,49.9,40.9,83,70,48,30.17,30.08,8,2,12,0.00
2013-3-15,66.5,56.0,48.9,51.5,46.0,38.0,92,70,52,30.14,30.07,9,2,12,0.00
2013-3-16,63.7,52.1,44.5,53.6,46.9,43.2,98,84,55,30.14,30.05,10,3,15,0.00
2013-3-17,60.4,51.3,46.4,47.0,44.5,38.8,93,78,52,30.17,30.08,11,3,7,0.00
2013-3-18,62.6,52.3,45.8,48.0,43.8,38.1,91,74,48,30.15,30.06,9,1,14,0.00
2013-3-19,63.9,53.9,45.9,48.2,40.7,31.8,92,63,40,30.17,30.07,12,3,16,0.09
2013-3-20,61.1,53.5,49.8,53.1,49.9,47.0,95,88,64,30.16,30.08,10,4,15,0.03
2013-3-21,56.2,49.2,42.4,48.7,43.1,39.4,96,80,63,30.15,30.05,10,4,16,0.00
2013-3-22,63.4,53.9,47.1,43.6,31.0,12.2,82,46,16,30.14,30.05,17,6,29,0.00
2013-3-23,62.9,55.1,49.8,40.6,30.1,21.1,59,39,25,30.15,30.07,9,4,13,0.00
2013-3-24,63.8,53.1,46.5,47.4,42.9,32.7,90,69,46,30.10,30.00,9,2,10,0.00
2013-3-25,52.4,47.0,44.0,44.8,43.0,41.6,94,86,72,30.05,29.97,12,4,16,0.00
2013-3-26,60.6,51.4,44.8,48.1,44.3,42.0,91,78,59,30.04,29.97,9,3,13,0.00
2013-3-27,60.4,53.1,47.4,52.0,48.0,41.8,93,83,69,30.04,29.97,11,2,15,0.00
2013-3-28,65.8,56.4,51.6,54.8,51.6,48.8,96,85,61,30.11,30.02,10,2,15,0.03
2013-3-29,72.0,60.0,51.4,55.9,50.5,47.7,92,72,55,30.10,30.03,13,4,16,0.00
2013-3-30,65.8,57.0,50.5,53.8,51.0,48.0,95,81,61,30.08,29.99,9,1,12,0.02
2013-3-31,65.8,56.6,51.5,51.9,49.6,46.4,93,78,52,30.09,30.01,9,3,18,0.04